Time,TemperatureF,DewpointF,PressureIn,WindDirection,WindDirectionDegrees,WindSpeedMPH,WindSpeedGustMPH,Humidity,HourlyPrecipIn,Conditions,Clouds,dailyrainin,SolarRadiationWatts/m^2,SoftwareType,DateUTC
2013-10-07 00:03:00,46.7,35.0,30.04,North,350,0.0,2.0,63,0.00,,,0.00,0,weatherlink.com 1.10,2013-10-07 06:03:00,
2013-10-07 00:18:00,46.8,35.0,30.04,North,355,2.0,3.0,63,0.00,,,0.00,0,weatherlink.com 1.10,2013-10-07 06:18:00,
2013-10-07 00:33:00,47.3,36.0,30.03,SE,140,3.0,4.0,65,0.00,,,0.00,0,weatherlink.com 1.10,2013-10-07 06:33:00,
2013-10-07 00:48:00,46.2,36.0,30.03,SSE,162,0.0,1.0,68,0.00,,,0.00,0,weatherlink.com 1.10,2013-10-07 06:48:00,
2013-10-07 01:03:00,45.4,35.0,30.02,West,278,1.0,3.0,66,0.00,,,0.00,0,weatherlink.com 1.10,2013-10-07 07:03:00,
2013-10-07 01:18:00,44.7,33.0,30.02,West,279,0.0,2.0,65,0.00,,,0.00,0,weatherlink.com 1.10,2013-10-07 07:18:00,
2013-10-07 01:33:00,45.4,32.0,30.02,West,280,1.0,3.0,61,0.00,,,0.00,0,weatherlink.com 1.10,2013-10-07 07:33:00,
2013-10-07 01:48:00,46.5,33.0,30.02,West,261,1.0,4.0,59,0.00,,,0.00,0,weatherlink.com 1.10,2013-10-07 07:48:00,
2013-10-07 02:03:00,46.9,31.0,30.02,West,271,2.0,4.0,55,0.00,,,0.00,0,weatherlink.com 1.10,2013-10-07 08:03:00,
2013-10-07 02:18:00,46.5,31.0,30.02,West,265,4.0,4.0,55,0.00,,,0.00,0,weatherlink.com 1.10,2013-10-07 08:18:00,
2013-10-07 02:33:00,46.2,31.0,30.01,West,276,4.0,5.0,56,0.00,,,0.00,0,weatherlink.com 1.10,2013-10-07 08:33:00,
2013-10-07 02:48:00,45.1,31.0,30.01,WNW,288,2.0,5.0,59,0.00,,,0.00,0,weatherlink.com 1.10,2013-10-07 08:48:00,
2013-10-07 03:03:00,45.8,30.0,30.00,West,278,3.0,5.0,55,0.00,,,0.00,0,weatherlink.com 1.10,2013-10-07 09:03:00,
2013-10-07 03:18:00,46.3,29.0,30.00,West,277,3.0,4.0,52,0.00,,,0.00,0,weatherlink.com 1.10,2013-10-07 09:18:00,
2013-10-07 03:33:00,47.7,28.0,30.00,WSW,252,2.0,4.0,47,0.00,,,0.00,0,weatherlink.com 1.10,2013-10-07 09:33:00,
2013-10-07 03:48:00,46.1,32.0,30.00,North,5,0.0,4.0,58,0.00,,,0.00,0,weatherlink.com 1.10,2013-10-07 09:48:00,
2013-10-07 04:03:00,45.2,30.0,30.00,North,5,1.0,3.0,55,0.00,,,0.00,0,weatherlink.com 1.10,2013-10-07 10:03:00,
2013-10-07 04:18:00,45.1,30.0,30.00,North,5,0.0,2.0,56,0.00,,,0.00,0,weatherlink.com 1.10,2013-10-07 10:18:00,
2013-10-07 04:33:00,44.6,31.0,30.00,North,5,0.0,1.0,59,0.00,,,0.00,0,weatherlink.com 1.10,2013-10-07 10:33:00,
2013-10-07 04:48:00,44.3,31.0,30.00,North,5,0.0,1.0,59,0.00,,,0.00,0,weatherlink.com 1.10,2013-10-07 10:48:00,
2013-10-07 05:03:00,45.2,32.0,30.00,North,5,0.0,0.0,60,0.00,,,0.00,0,weatherlink.com 1.10,2013-10-07 11:03:00,
2013-10-07 05:18:00,43.3,31.0,30.00,North,5,0.0,0.0,63,0.00,,,0.00,0,weatherlink.com 1.10,2013-10-07 11:18:00,
2013-10-07 05:33:00,41.7,31.0,30.00,West,260,2.0,3.0,65,0.00,,,0.00,0,weatherlink.com 1.10,2013-10-07 11:33:00,
2013-10-07 05:48:00,41.4,30.0,30.00,West,260,3.0,3.0,65,0.00,,,0.00,0,weatherlink.com 1.10,2013-10-07 11:48:00,
2013-10-07 06:03:00,40.5,30.0,30.00,West,271,1.0,4.0,67,0.00,,,0.00,0,weatherlink.com 1.10,2013-10-07 12:03:00,
2013-10-07 06:18:00,40.8,30.0,30.00,West,265,4.0,4.0,65,0.00,,,0.00,0,weatherlink.com 1.10,2013-10-07 12:18:00,
2013-10-07 06:33:00,41.5,30.0,30.00,West,265,0.0,2.0,63,0.00,,,0.00,0,weatherlink.com 1.10,2013-10-07 12:33:00,
2013-10-07 06:48:00,40.7,29.0,30.00,West,265,0.0,4.0,64,0.00,,,0.00,0,weatherlink.com 1.10,2013-10-07 12:48:00,
2013-10-07 07:03:00,40.6,31.0,29.99,West,265,0.0,2.0,69,0.00,,,0.00,0,weatherlink.com 1.10,2013-10-07 13:03:00,
2013-10-07 07:18:00,40.6,30.0,29.99,West,270,2.0,4.0,65,0.00,,,0.00,11,weatherlink.com 1.10,2013-10-07 13:18:00,
2013-10-07 07:33:00,41.5,29.0,29.99,West,279,2.0,5.0,62,0.00,,,0.00,49,weatherlink.com 1.10,2013-10-07 13:33:00,
2013-10-07 07:48:00,43.3,30.0,29.99,West,279,1.0,2.0,61,0.00,,,0.00,98,weatherlink.com 1.10,2013-10-07 13:48:00,
2013-10-07 08:03:00,45.1,32.0,29.99,West,273,0.0,3.0,60,0.00,,,0.00,155,weatherlink.com 1.10,2013-10-07 14:03:00,
2013-10-07 08:34:00,50.4,35.0,29.98,West,273,0.0,0.0,56,0.00,,,0.00,251,weatherlink.com 1.10,2013-10-07 14:34:00,
2013-10-07 08:49:00,54.0,37.0,29.98,SSE,163,0.0,2.0,52,0.00,,,0.00,294,weatherlink.com 1.10,2013-10-07 14:49:00,
2013-10-07 09:04:00,56.5,38.0,29.98,SSE,163,0.0,1.0,51,0.00,,,0.00,336,weatherlink.com 1.10,2013-10-07 15:04:00,
2013-10-07 09:19:00,56.9,36.0,29.98,SSE,163,0.0,2.0,45,0.00,,,0.00,376,weatherlink.com 1.10,2013-10-07 15:19:00,
2013-10-07 09:34:00,57.5,36.0,29.98,SSE,163,0.0,2.0,45,0.00,,,0.00,418,weatherlink.com 1.10,2013-10-07 15:34:00,
2013-10-07 09:49:00,58.6,35.0,29.97,SSE,162,1.0,3.0,41,0.00,,,0.00,464,weatherlink.com 1.10,2013-10-07 15:49:00,
2013-10-07 10:04:00,59.7,34.0,29.97,SE,144,0.0,2.0,38,0.00,,,0.00,499,weatherlink.com 1.10,2013-10-07 16:04:00,
2013-10-07 10:34:00,62.7,35.0,29.96,SSE,148,1.0,3.0,35,0.00,,,0.00,561,weatherlink.com 1.10,2013-10-07 16:34:00,
2013-10-07 10:49:00,64.4,35.0,29.95,SSW,199,1.0,2.0,34,0.00,,,0.00,592,weatherlink.com 1.10,2013-10-07 16:49:00,
2013-10-07 11:04:00,64.9,34.0,29.94,SSE,161,1.0,4.0,32,0.00,,,0.00,619,weatherlink.com 1.10,2013-10-07 17:04:00,
2013-10-07 11:19:00,65.6,31.0,29.94,SSE,161,3.0,3.0,28,0.00,,,0.00,638,weatherlink.com 1.10,2013-10-07 17:19:00,
2013-10-07 11:34:00,67.8,32.0,29.93,SSE,163,0.0,4.0,27,0.00,,,0.00,635,weatherlink.com 1.10,2013-10-07 17:34:00,
2013-10-07 11:50:00,68.2,33.0,29.92,East,94,0.0,5.0,27,0.00,,,0.00,677,weatherlink.com 1.10,2013-10-07 17:50:00,
2013-10-07 12:05:00,68.2,33.0,29.91,SE,131,0.0,5.0,27,0.00,,,0.00,670,weatherlink.com 1.10,2013-10-07 18:05:00,
2013-10-07 12:20:00,69.7,33.0,29.90,South,182,2.0,5.0,26,0.00,,,0.00,638,weatherlink.com 1.10,2013-10-07 18:20:00,
2013-10-07 12:35:00,70.1,32.0,29.89,SE,144,0.0,6.0,24,0.00,,,0.00,603,weatherlink.com 1.10,2013-10-07 18:35:00,
2013-10-07 12:50:00,70.8,30.0,29.89,South,182,5.0,6.0,22,0.00,,,0.00,272,weatherlink.com 1.10,2013-10-07 18:50:00,
2013-10-07 13:05:00,71.2,29.0,29.88,SSE,153,4.0,5.0,21,0.00,,,0.00,710,weatherlink.com 1.10,2013-10-07 19:05:00,
2013-10-07 13:20:00,72.1,26.0,29.86,SSE,154,4.0,7.0,18,0.00,,,0.00,707,weatherlink.com 1.10,2013-10-07 19:20:00,
2013-10-07 13:35:00,73.9,26.0,29.86,SE,125,4.0,6.0,17,0.00,,,0.00,686,weatherlink.com 1.10,2013-10-07 19:35:00,
2013-10-07 13:50:00,74.1,26.0,29.85,ESE,113,3.0,9.0,17,0.00,,,0.00,650,weatherlink.com 1.10,2013-10-07 19:50:00,
2013-10-07 14:05:00,75.3,23.0,29.84,SSW,202,1.0,6.0,14,0.00,,,0.00,656,weatherlink.com 1.10,2013-10-07 20:05:00,
2013-10-07 14:20:00,74.7,22.0,29.84,SE,134,2.0,7.0,14,0.00,,,0.00,635,weatherlink.com 1.10,2013-10-07 20:20:00,
2013-10-07 14:35:00,74.9,22.0,29.83,SSE,153,1.0,6.0,14,0.00,,,0.00,610,weatherlink.com 1.10,2013-10-07 20:35:00,
2013-10-07 14:50:00,78.0,25.0,29.82,SSE,155,0.0,6.0,14,0.00,,,0.00,584,weatherlink.com 1.10,2013-10-07 20:50:00,
2013-10-07 15:05:00,76.8,24.0,29.82,ESE,105,7.0,8.0,14,0.00,,,0.00,547,weatherlink.com 1.10,2013-10-07 21:05:00,
2013-10-07 15:20:00,78.0,25.0,29.82,East,94,3.0,4.0,14,0.00,,,0.00,517,weatherlink.com 1.10,2013-10-07 21:20:00,
2013-10-07 15:35:00,78.2,22.0,29.81,ENE,76,2.0,8.0,12,0.00,,,0.00,489,weatherlink.com 1.10,2013-10-07 21:35:00,
2013-10-07 15:50:00,77.7,23.0,29.80,SSE,153,0.0,5.0,13,0.00,,,0.00,450,weatherlink.com 1.10,2013-10-07 21:50:00,
2013-10-07 16:05:00,78.3,24.0,29.79,SE,135,1.0,7.0,13,0.00,,,0.00,418,weatherlink.com 1.10,2013-10-07 22:05:00,
2013-10-07 16:20:00,79.5,23.0,29.78,ENE,71,2.0,2.0,12,0.00,,,0.00,369,weatherlink.com 1.10,2013-10-07 22:20:00,
2013-10-07 16:35:00,78.4,22.0,29.78,ENE,63,0.0,6.0,12,0.00,,,0.00,323,weatherlink.com 1.10,2013-10-07 22:35:00,
2013-10-07 16:50:00,78.1,25.0,29.77,ENE,57,1.0,4.0,14,0.00,,,0.00,272,weatherlink.com 1.10,2013-10-07 22:50:00,
2013-10-07 17:05:00,78.3,22.0,29.77,NE,44,0.0,5.0,12,0.00,,,0.00,221,weatherlink.com 1.10,2013-10-07 23:05:00,
2013-10-07 17:20:00,78.2,25.0,29.77,ENE,63,0.0,3.0,14,0.00,,,0.00,162,weatherlink.com 1.10,2013-10-07 23:20:00,
2013-10-07 17:35:00,78.6,24.0,29.77,ENE,63,0.0,2.0,13,0.00,,,0.00,107,weatherlink.com 1.10,2013-10-07 23:35:00,
2013-10-07 17:50:00,79.2,36.0,29.77,ENE,63,0.0,3.0,21,0.00,,,0.00,35,weatherlink.com 1.10,2013-10-07 23:50:00,
2013-10-07 18:05:00,77.7,32.0,29.76,ENE,63,0.0,0.0,19,0.00,,,0.00,21,weatherlink.com 1.10,2013-10-08 00:05:00,
2013-10-07 18:20:00,71.9,37.0,29.76,West,273,7.0,7.0,28,0.00,,,0.00,9,weatherlink.com 1.10,2013-10-08 00:20:00,
2013-10-07 18:35:00,66.3,36.0,29.76,West,275,5.0,8.0,33,0.00,,,0.00,0,weatherlink.com 1.10,2013-10-08 00:35:00,
2013-10-07 18:50:00,64.1,33.0,29.76,West,276,9.0,9.0,32,0.00,,,0.00,0,weatherlink.com 1.10,2013-10-08 00:50:00,
2013-10-07 19:05:00,62.8,33.0,29.76,West,277,6.0,10.0,33,0.00,,,0.00,0,weatherlink.com 1.10,2013-10-08 01:05:00,
2013-10-07 19:20:00,62.1,33.0,29.76,WSW,254,10.0,10.0,34,0.00,,,0.00,0,weatherlink.com 1.10,2013-10-08 01:20:00,
2013-10-07 19:35:00,62.0,32.0,29.76,West,264,7.0,12.0,32,0.00,,,0.00,0,weatherlink.com 1.10,2013-10-08 01:35:00,
2013-10-07 19:50:00,62.3,32.0,29.75,West,259,7.0,10.0,32,0.00,,,0.00,0,weatherlink.com 1.10,2013-10-08 01:50:00,
2013-10-07 20:05:00,62.5,31.0,29.75,WSW,250,7.0,10.0,31,0.00,,,0.00,0,weatherlink.com 1.10,2013-10-08 02:05:00,
2013-10-07 20:21:00,62.4,30.0,29.75,West,275,5.0,9.0,30,0.00,,,0.00,0,weatherlink.com 1.10,2013-10-08 02:21:00,
2013-10-07 20:36:00,62.6,31.0,29.75,West,265,9.0,13.0,30,0.00,,,0.00,0,weatherlink.com 1.10,2013-10-08 02:36:00,
2013-10-07 20:51:00,62.5,30.0,29.75,West,274,8.0,10.0,29,0.00,,,0.00,0,weatherlink.com 1.10,2013-10-08 02:51:00,
2013-10-07 21:06:00,62.0,29.0,29.75,WSW,257,3.0,7.0,29,0.00,,,0.00,0,weatherlink.com 1.10,2013-10-08 03:06:00,
2013-10-07 21:21:00,62.0,29.0,29.75,West,265,3.0,6.0,29,0.00,,,0.00,0,weatherlink.com 1.10,2013-10-08 03:21:00,
2013-10-07 21:36:00,61.8,28.0,29.75,SW,233,11.0,12.0,28,0.00,,,0.00,0,weatherlink.com 1.10,2013-10-08 03:36:00,
2013-10-07 21:51:00,62.6,27.0,29.74,West,260,8.0,11.0,26,0.00,,,0.00,0,weatherlink.com 1.10,2013-10-08 03:51:00,
2013-10-07 22:06:00,62.8,27.0,29.73,West,259,5.0,13.0,26,0.00,,,0.00,0,weatherlink.com 1.10,2013-10-08 04:06:00,
2013-10-07 22:21:00,63.0,27.0,29.73,WNW,302,4.0,11.0,25,0.00,,,0.00,0,weatherlink.com 1.10,2013-10-08 04:21:00,
2013-10-07 22:36:00,61.6,27.0,29.73,West,278,5.0,8.0,27,0.00,,,0.00,0,weatherlink.com 1.10,2013-10-08 04:36:00,
2013-10-07 22:51:00,63.0,28.0,29.72,ENE,61,0.0,10.0,27,0.00,,,0.00,0,weatherlink.com 1.10,2013-10-08 04:51:00,
2013-10-07 23:06:00,61.9,27.0,29.71,West,279,0.0,5.0,27,0.00,,,0.00,0,weatherlink.com 1.10,2013-10-08 05:06:00,
2013-10-07 23:21:00,61.0,27.0,29.71,WNW,296,0.0,5.0,28,0.00,,,0.00,0,weatherlink.com 1.10,2013-10-08 05:21:00,
2013-10-07 23:51:00,59.4,28.0,29.70,West,263,1.0,6.0,30,0.00,,,0.00,0,weatherlink.com 1.10,2013-10-08 05:51:00,